Time,TemperatureF,DewpointF,PressureIn,WindDirection,WindDirectionDegrees,WindSpeedMPH,WindSpeedGustMPH,Humidity,HourlyPrecipIn,Conditions,Clouds,dailyrainin,SoftwareType,DateUTC
2013-09-16 00:11:00,61.0,60.0,29.83,SSW,194,3.0,-999.0,97,-99.99,,,-99.99,,2013-09-16 07:11:00,
2013-09-16 00:21:00,61.0,60.0,29.83,SSW,192,2.0,-999.0,97,-99.99,,,-99.99,,2013-09-16 07:21:00,
2013-09-16 00:52:00,61.0,60.0,29.83,South,172,2.0,-999.0,97,-99.99,,,-99.99,,2013-09-16 07:52:00,
2013-09-16 01:21:00,61.0,60.0,29.83,SSE,164,2.0,-999.0,97,-99.99,,,-99.99,,2013-09-16 08:21:00,
2013-09-16 01:52:00,60.0,59.0,29.84,South,182,3.0,-999.0,96,-99.99,,,-99.99,,2013-09-16 08:52:00,
2013-09-16 02:11:00,60.0,59.0,29.85,South,171,3.0,-999.0,96,-99.99,,,-99.99,,2013-09-16 09:11:00,
2013-09-16 02:22:00,60.0,59.0,29.85,SSE,164,3.0,-999.0,96,-99.99,,,-99.99,,2013-09-16 09:22:00,
2013-09-16 02:43:00,60.0,59.0,29.85,South,185,3.0,-999.0,95,-99.99,,,-99.99,,2013-09-16 09:43:00,
2013-09-16 02:53:00,60.0,59.0,29.85,SSW,196,2.0,-999.0,95,-99.99,,,-99.99,,2013-09-16 09:53:00,
2013-09-16 03:12:00,60.0,59.0,29.85,SSW,205,3.0,-999.0,95,-99.99,,,-99.99,,2013-09-16 10:12:00,
2013-09-16 03:23:00,60.0,59.0,29.86,South,180,2.0,-999.0,95,-99.99,,,-99.99,,2013-09-16 10:23:00,
2013-09-16 03:53:00,60.0,58.0,29.86,SSE,152,3.0,-999.0,94,-99.99,,,-99.99,,2013-09-16 10:53:00,
2013-09-16 04:11:00,60.0,58.0,29.86,South,169,3.0,-999.0,94,-99.99,,,-99.99,,2013-09-16 11:11:00,
2013-09-16 04:22:00,60.0,58.0,29.87,SE,146,4.0,-999.0,94,-99.99,,,-99.99,,2013-09-16 11:22:00,
2013-09-16 04:42:00,60.0,58.0,29.87,South,184,5.0,-999.0,94,-99.99,,,-99.99,,2013-09-16 11:42:00,
2013-09-16 04:52:00,60.0,58.0,29.88,SE,136,4.0,-999.0,94,-99.99,,,-99.99,,2013-09-16 11:52:00,
2013-09-16 05:12:00,60.0,58.0,29.88,SSW,197,3.0,-999.0,94,-99.99,,,-99.99,,2013-09-16 12:12:00,
2013-09-16 05:22:00,60.0,58.0,29.88,SE,138,2.0,-999.0,93,-99.99,,,-99.99,,2013-09-16 12:22:00,
2013-09-16 05:52:00,59.0,57.0,29.88,SSW,192,3.0,-999.0,94,-99.99,,,-99.99,,2013-09-16 12:52:00,
2013-09-16 06:11:00,59.0,57.0,29.88,South,175,3.0,-999.0,94,-99.99,,,-99.99,,2013-09-16 13:11:00,
2013-09-16 06:21:00,59.0,57.0,29.89,South,178,3.0,-999.0,94,-99.99,,,-99.99,,2013-09-16 13:21:00,
2013-09-16 06:52:00,60.0,58.0,29.89,SSE,168,2.0,-999.0,94,-99.99,,,-99.99,,2013-09-16 13:52:00,
2013-09-16 07:11:00,60.0,58.0,29.89,South,180,2.0,-999.0,94,-99.99,,,-99.99,,2013-09-16 14:11:00,
2013-09-16 07:21:00,59.0,57.0,29.90,South,178,2.0,-999.0,94,-99.99,,,-99.99,,2013-09-16 14:21:00,
2013-09-16 07:52:00,60.0,58.0,29.90,SSW,196,2.0,-999.0,93,-99.99,,,-99.99,,2013-09-16 14:52:00,
2013-09-16 08:11:00,60.0,58.0,29.90,South,171,2.0,-999.0,93,-99.99,,,-99.99,,2013-09-16 15:11:00,
2013-09-16 08:22:00,60.0,58.0,29.91,SSE,161,2.0,-999.0,93,-99.99,,,-99.99,,2013-09-16 15:22:00,
2013-09-16 08:53:00,60.0,58.0,29.91,SSW,196,2.0,-999.0,93,-99.99,,,-99.99,,2013-09-16 15:53:00,
2013-09-16 09:23:00,61.0,59.0,29.91,South,180,2.0,-999.0,92,-99.99,,,-99.99,,2013-09-16 16:23:00,
2013-09-16 09:43:00,61.0,58.0,29.91,South,174,3.0,-999.0,91,-99.99,,,-99.99,,2013-09-16 16:43:00,
2013-09-16 09:52:00,61.0,58.0,29.91,South,178,3.0,-999.0,91,-99.99,,,-99.99,,2013-09-16 16:52:00,
2013-09-16 10:12:00,61.0,58.0,29.91,SSW,202,3.0,-999.0,91,-99.99,,,-99.99,,2013-09-16 17:12:00,
2013-09-16 10:23:00,61.0,58.0,29.92,SSW,200,3.0,-999.0,90,-99.99,,,-99.99,,2013-09-16 17:23:00,
2013-09-16 10:53:00,61.0,58.0,29.92,SSE,168,3.0,-999.0,90,-99.99,,,-99.99,,2013-09-16 17:53:00,
2013-09-16 11:12:00,61.0,59.0,29.92,South,184,3.0,-999.0,92,-99.99,,,-99.99,,2013-09-16 18:12:00,
2013-09-16 11:22:00,62.0,59.0,29.92,SSW,195,4.0,-999.0,89,-99.99,,,-99.99,,2013-09-16 18:22:00,
2013-09-16 11:42:00,62.0,59.0,29.92,SE,138,3.0,-999.0,89,-99.99,,,-99.99,,2013-09-16 18:42:00,
2013-09-16 11:52:00,63.0,59.0,29.93,SSE,153,4.0,-999.0,88,-99.99,,,-99.99,,2013-09-16 18:52:00,
2013-09-16 12:11:00,62.0,58.0,29.93,South,179,4.0,-999.0,88,-99.99,,,-99.99,,2013-09-16 19:11:00,
2013-09-16 12:22:00,62.0,59.0,29.93,SSE,148,4.0,-999.0,89,-99.99,,,-99.99,,2013-09-16 19:22:00,
2013-09-16 12:53:00,63.0,59.0,29.94,SSE,165,4.0,-999.0,88,-99.99,,,-99.99,,2013-09-16 19:53:00,
2013-09-16 13:11:00,63.0,59.0,29.94,South,173,3.0,-999.0,88,-99.99,,,-99.99,,2013-09-16 20:11:00,
2013-09-16 13:22:00,63.0,59.0,29.94,SSE,168,4.0,-999.0,87,-99.99,,,-99.99,,2013-09-16 20:22:00,
2013-09-16 13:42:00,63.0,59.0,29.94,SSW,196,3.0,-999.0,88,-99.99,,,-99.99,,2013-09-16 20:42:00,
2013-09-16 13:52:00,64.0,60.0,29.94,South,187,2.0,-999.0,86,-99.99,,,-99.99,,2013-09-16 20:52:00,
2013-09-16 14:11:00,65.0,61.0,29.93,SSE,160,2.0,-999.0,86,-99.99,,,-99.99,,2013-09-16 21:11:00,
2013-09-16 14:21:00,65.0,60.0,29.94,SSE,157,3.0,-999.0,84,-99.99,,,-99.99,,2013-09-16 21:21:00,
2013-09-16 14:55:00,67.0,61.0,29.93,SSW,202,3.0,-999.0,81,-99.99,,,-99.99,,2013-09-16 21:55:00,
2013-09-16 15:13:00,67.0,60.0,29.93,SSE,165,3.0,-999.0,79,-99.99,,,-99.99,,2013-09-16 22:13:00,
2013-09-16 15:24:00,68.0,62.0,29.93,SSW,209,3.0,-999.0,80,-99.99,,,-99.99,,2013-09-16 22:24:00,
2013-09-16 15:42:00,69.0,61.0,29.93,South,178,2.0,-999.0,76,-99.99,,,-99.99,,2013-09-16 22:42:00,
2013-09-16 15:53:00,70.0,61.0,29.92,SSW,196,4.0,-999.0,74,-99.99,,,-99.99,,2013-09-16 22:53:00,
2013-09-16 16:12:00,69.0,60.0,29.92,South,188,3.0,-999.0,72,-99.99,,,-99.99,,2013-09-16 23:12:00,
2013-09-16 16:22:00,68.0,60.0,29.92,South,188,1.0,-999.0,76,-99.99,,,-99.99,,2013-09-16 23:22:00,
2013-09-16 16:52:00,62.0,58.0,29.93,North,9,1.0,-999.0,88,-99.99,,,-99.99,,2013-09-16 23:52:00,
2013-09-16 17:11:00,61.0,57.0,29.93,NW,315,0.0,-999.0,88,-99.99,,,-99.99,,2013-09-17 00:11:00,
2013-09-16 17:21:00,61.0,57.0,29.93,NW,322,0.0,-999.0,88,-99.99,,,-99.99,,2013-09-17 00:21:00,
2013-09-16 17:42:00,61.0,57.0,29.93,NNE,14,1.0,-999.0,88,-99.99,,,-99.99,,2013-09-17 00:42:00,
2013-09-16 17:52:00,61.0,58.0,29.93,NNW,333,0.0,-999.0,89,-99.99,,,-99.99,,2013-09-17 00:52:00,
2013-09-16 18:11:00,61.0,58.0,29.93,NNE,23,0.0,-999.0,90,-99.99,,,-99.99,,2013-09-17 01:11:00,
2013-09-16 18:21:00,61.0,58.0,29.93,NE,38,0.0,-999.0,89,-99.99,,,-99.99,,2013-09-17 01:21:00,
2013-09-16 18:41:00,60.0,56.0,29.93,NNE,17,0.0,-999.0,88,-99.99,,,-99.99,,2013-09-17 01:41:00,
2013-09-16 18:52:00,60.0,56.0,29.94,North,360,0.0,-999.0,88,-99.99,,,-99.99,,2013-09-17 01:52:00,
2013-09-16 19:11:00,59.0,56.0,29.94,NNE,27,0.0,-999.0,89,-99.99,,,-99.99,,2013-09-17 02:11:00,
2013-09-16 19:22:00,59.0,56.0,29.94,NNE,26,0.0,-999.0,89,-99.99,,,-99.99,,2013-09-17 02:22:00,
2013-09-16 19:42:00,59.0,56.0,29.94,NNE,26,0.0,-999.0,90,-99.99,,,-99.99,,2013-09-17 02:42:00,
2013-09-16 19:52:00,59.0,56.0,29.94,NNE,26,0.0,-999.0,90,-99.99,,,-99.99,,2013-09-17 02:52:00,
2013-09-16 20:11:00,59.0,56.0,29.94,NNE,26,0.0,-999.0,91,-99.99,,,-99.99,,2013-09-17 03:11:00,
2013-09-16 20:23:00,59.0,57.0,29.95,NNE,15,0.0,-999.0,92,-99.99,,,-99.99,,2013-09-17 03:23:00,
2013-09-16 20:44:00,58.0,55.0,29.95,NNE,15,0.0,-999.0,91,-99.99,,,-99.99,,2013-09-17 03:44:00,
2013-09-16 20:54:00,58.0,55.0,29.95,NNE,16,0.0,-999.0,91,-99.99,,,-99.99,,2013-09-17 03:54:00,
2013-09-16 21:24:00,58.0,55.0,29.95,NNE,16,0.0,-999.0,90,-99.99,,,-99.99,,2013-09-17 04:24:00,
2013-09-16 21:54:00,58.0,55.0,29.95,NNE,16,0.0,-999.0,90,-99.99,,,-99.99,,2013-09-17 04:54:00,
2013-09-16 22:12:00,58.0,55.0,29.95,NNE,15,0.0,-999.0,90,-99.99,,,-99.99,,2013-09-17 05:12:00,
2013-09-16 22:23:00,58.0,55.0,29.95,NNE,15,0.0,-999.0,90,-99.99,,,-99.99,,2013-09-17 05:23:00,
2013-09-16 22:52:00,58.0,55.0,29.94,NNE,16,0.0,-999.0,90,-99.99,,,-99.99,,2013-09-17 05:52:00,
2013-09-16 23:12:00,57.0,54.0,29.94,NNE,16,0.0,-999.0,89,-99.99,,,-99.99,,2013-09-17 06:12:00,
2013-09-16 23:22:00,57.0,54.0,29.95,NNE,16,0.0,-999.0,90,-99.99,,,-99.99,,2013-09-17 06:22:00,
2013-09-16 23:42:00,57.0,54.0,29.95,NNE,16,0.0,-999.0,90,-99.99,,,-99.99,,2013-09-17 06:42:00,
2013-09-16 23:52:00,57.0,54.0,29.95,NNE,15,0.0,-999.0,90,-99.99,,,-99.99,,2013-09-17 06:52:00,